This is the latest recevied weather packets stored in our database for station/object KG7MRB. If no packets are shown the sender has not sent any weather packets the latest 10 day(s).
| Time | Temp. | Humidity | Pressure | Rain* | Wind** | Luminosity | Snow |
|---|---|---|---|---|---|---|---|
| 1778006182 | 19.44° C | 74% | 1033.2 hPa | 0 mm | - | 631 W/m² | - |
| 1778005880 | 19.44° C | 71% | 1033.2 hPa | 0 mm | - | 627 W/m² | - |
| 1778005576 | 18.89° C | 69% | 1033.2 hPa | 0 mm | - | 619 W/m² | - |
| 1778005273 | 18.89° C | 71% | 1033.1 hPa | 0 mm | - | 612 W/m² | - |
| 1778004970 | 18.89° C | 70% | 1033.1 hPa | 0 mm | - | 606 W/m² | - |
| 1778004667 | 18.89° C | 68% | 1033.1 hPa | 0 mm | - | 602 W/m² | - |
| 1778004363 | 18.33° C | 69% | 1033.2 hPa | 0 mm | - | 590 W/m² | - |
| 1778004061 | 18.89° C | 69% | 1033.1 hPa | 0 mm | - | 588 W/m² | - |
| 1778003756 | 18.33° C | 69% | 1033 hPa | 0 mm | - | 577 W/m² | - |
| 1778003453 | 18.89° C | 68% | 1033.3 hPa | 0 mm | - | 570 W/m² | - |
| 1778003150 | 18.89° C | 67% | 1033 hPa | 0 mm | - | 561 W/m² | - |
| 1778002846 | 18.33° C | 69% | 1033.1 hPa | 0 mm | - | 551 W/m² | - |
| 1778002543 | 18.33° C | 68% | 1033.3 hPa | 0 mm | - | 544 W/m² | - |
| 1778002239 | 18.33° C | 68% | 1033.2 hPa | 0 mm | - | 534 W/m² | - |
| 1778001937 | 18.33° C | 67% | 1033.1 hPa | 0 mm | - | 526 W/m² | - |
| 1778001633 | 17.78° C | 66% | 1033.3 hPa | 0 mm | - | 517 W/m² | - |
| 1778001328 | 17.78° C | 66% | 1033 hPa | 0 mm | - | 506 W/m² | - |
| 1778001026 | 18.33° C | 65% | 1033.1 hPa | 0 mm | - | 496 W/m² | - |
| 1778000722 | 18.89° C | 64% | 1033.1 hPa | 0 mm | - | 484 W/m² | - |
| 1778000419 | 18.33° C | 66% | 1033.1 hPa | 0 mm | - | 474 W/m² | - |
| 1778000114 | 18.89° C | 66% | 1033.1 hPa | 0 mm | - | 464 W/m² | - |
| 1777999809 | 18.89° C | 62% | 1033.2 hPa | 0 mm | - | 451 W/m² | - |
| 1777999501 | 18.33° C | 63% | 1033.2 hPa | 0 mm | - | 440 W/m² | - |
| 1777999199 | 17.78° C | 68% | 1033.3 hPa | 0 mm | - | 430 W/m² | - |
| 1777998897 | 17.22° C | 71% | 1033.2 hPa | 0 mm | - | 418 W/m² | - |
* Rain latest hour (hover to see other rain measurements)
** Current wind speed in m/s (hover to see current wind gust speed)